Weather History for Washington, GA

Change the Weather History Date:

Tuesday, January 29, 2013

  Actual Average (KDBN) Record (KDBN)
Temperature  
Mean Temperature 47 °F -  
Max Temperature 59 °F 59 °F 80 °F (1947)
Min Temperature 39 °F 32 °F 11 °F (1986)
Degree Days  
Heating Degree Days 18    
Moisture  
Dew Point 43 °F    
Average Humidity 97    
Maximum Humidity 100    
Minimum Humidity 82    
Precipitation  
Precipitation 0.00 in - - ()
Sea Level Pressure  
Sea Level Pressure 30.25 in    
Wind  
Wind Speed 0 mph (NNW)    
Max Wind Speed 5 mph    
Max Gust Speed -    
Visibility 4 miles    
Events Fog    
Averages and records for this station are not official NWS values.
T = Trace of Precipitation, MM = Missing Value Source: NWS Daily Summary

Daily Weather History Graph

Daily Weather History Graph

Search for Another Location

Airport:

Trip Planner

Search our weather history database for the weather conditions in past years. The results will help you decide how hot, cold, wet, or windy it might be!

Date:

Astronomy

Jan. 29, 2013 Rise Set
Actual Time 7:29 AM EST 5:59 PM EST
Civil Twilight 7:03 AM EST 6:25 PM EST
Nautical Twilight 6:33 AM EST 6:55 PM EST
Astronomical Twilight 6:03 AM EST 7:25 PM EST
Moon 8:43 PM EST (1/29) 8:35 AM EST (1/29)
Length of Visible Light 11h 22m
Length of Day
10h 29m
Waning Gibbous, 94% of the Moon is Illuminated
Jan 29
Waning Gibbous
Feb 3
Last Quarter
Feb 10
New
Feb 17
First Quarter
Feb 25
Full

Hourly Weather History & Observations

Time (EST) Temp. Windchill Dew Point Humidity Pressure Visibility Wind Dir Wind Speed Gust Speed Precip Events Conditions
12:15 AM 41.0 °F - 39.2 °F 93% 30.29 in 4.0 mi Calm Calm - N/A   Clear
12:35 AM 42.8 °F - 42.8 °F 100% 30.29 in 3.0 mi Calm Calm - N/A   Mist
12:55 AM 41.0 °F - 41.0 °F 100% 30.28 in 3.0 mi Calm Calm - N/A   Mist
1:15 AM 41.0 °F - 41.0 °F 100% 30.28 in 5.0 mi Calm Calm - N/A   Clear
1:35 AM 41.0 °F - 39.2 °F 93% 30.27 in 5.0 mi Calm Calm - N/A   Clear
1:55 AM 41.0 °F - 41.0 °F 100% 30.27 in 4.0 mi Calm Calm - N/A   Clear
2:15 AM 41.0 °F 39.0 °F 41.0 °F 100% 30.26 in 4.0 mi NNW 3.5 mph - N/A   Clear
2:35 AM 41.0 °F - 41.0 °F 100% 30.26 in 4.0 mi Calm Calm - N/A   Clear
2:55 AM 41.0 °F 39.0 °F 41.0 °F 100% 30.26 in 4.0 mi NW 3.5 mph - N/A   Clear
3:15 AM 41.0 °F - 41.0 °F 100% 30.25 in 4.0 mi Calm Calm - N/A   Clear
3:35 AM 41.0 °F - 41.0 °F 100% 30.24 in 4.0 mi Calm Calm - N/A   Clear
3:55 AM 41.0 °F - 41.0 °F 100% 30.25 in 3.0 mi Calm Calm - N/A   Mist
4:15 AM 41.0 °F - 41.0 °F 100% 30.26 in 5.0 mi Calm Calm - N/A   Clear
4:35 AM 41.0 °F - 41.0 °F 100% 30.25 in 3.0 mi Calm Calm - N/A   Mist
4:55 AM 39.2 °F 37.0 °F 37.4 °F 93% 30.24 in 4.0 mi NNW 3.5 mph - N/A   Clear
5:15 AM 41.0 °F - 39.2 °F 93% 30.24 in 5.0 mi Calm Calm - N/A   Clear
5:35 AM 41.0 °F - 41.0 °F 100% 30.23 in 3.0 mi Calm Calm - N/A   Mist
5:55 AM 41.0 °F - 39.2 °F 93% 30.24 in 4.0 mi Calm Calm - N/A   Clear
6:15 AM 41.0 °F - 41.0 °F 100% 30.23 in 5.0 mi Calm Calm - N/A   Scattered Clouds
6:35 AM 41.0 °F - 41.0 °F 100% 30.24 in 4.0 mi Calm Calm - N/A   Scattered Clouds
6:55 AM 41.0 °F - 41.0 °F 100% 30.23 in 4.0 mi Calm Calm - N/A   Mostly Cloudy
7:15 AM 42.8 °F - 42.8 °F 100% 30.24 in 3.0 mi Calm Calm - N/A   Overcast
7:35 AM 44.6 °F - 42.8 °F 93% 30.24 in 3.0 mi Calm Calm - N/A   Overcast
7:55 AM 42.8 °F - 42.8 °F 100% 30.24 in 3.0 mi Calm Calm - N/A   Overcast
8:15 AM 46.4 °F - 44.6 °F 93% 30.24 in 2.5 mi Calm Calm - N/A   Overcast
8:35 AM 46.4 °F - 44.6 °F 93% 30.24 in 2.5 mi Calm Calm - N/A   Overcast
8:55 AM 48.2 °F - 46.4 °F 93% 30.24 in 2.0 mi SSE 4.6 mph - N/A   Overcast
9:15 AM 50.0 °F - 50.0 °F 100% 30.24 in 0.2 mi Calm Calm - N/A Fog Fog
9:35 AM 51.8 °F - 51.8 °F 100% 30.24 in 0.5 mi Calm Calm - N/A Fog Fog
10:15 AM 53.6 °F - 53.6 °F 100% 30.23 in 2.0 mi Calm Calm - N/A   Overcast
10:35 AM 55.4 °F - 53.6 °F 94% 30.23 in 4.0 mi Calm Calm - N/A   Mostly Cloudy
10:55 AM 59.0 °F - 53.6 °F 82% 30.22 in 5.0 mi Calm Calm - N/A   Haze